#timestamp,LO_Frequency,Hit 
1505264415.8,286046987.0,P
1505264435.6,286046996.6,P
1505264455.4,286046998.4,N
1505264475.3,286046996.9,N
1505264495.1,286046998.0,N
1505264496.0,286046998.0,N
1505264515.8,286046994.3,N
1505264535.7,286046995.7,N
1505264555.5,286046996.2,N
1505264575.3,286046993.9,N
1505264595.1,286046993.4,N
1505264615.9,286046994.1,N
1505264635.7,286046999.1,N
1505264655.5,286046997.1,N
1505264675.4,286046995.3,N
1505264695.2,286046993.4,N
1505264715.0,286046996.3,N
1505264715.9,286046996.3,N
1505264735.8,286046996.6,N
1505264755.6,286047001.1,N
1505264775.4,286047006.9,N
1505264795.3,286047011.2,N
1505264815.1,286047016.5,P
1505264835.8,286047022.7,N
1505264855.7,286047024.4,N
1505264875.5,286047024.6,N
1505264895.3,286047029.4,N
1505264915.2,286047032.2,P
1505264935.9,286047011.6,N
1505264955.7,286047013.2,N
1505264975.6,286047017.0,N
1505264995.4,286047014.1,N
1505265015.2,286047020.1,N
1505265035.1,286047016.4,N
1505265036.0,286047016.4,N
1505265055.8,286047017.0,N
1505265075.6,286047014.4,N
1505265095.4,286047014.8,N
1505265115.3,286047014.8,N
1505265135.1,286047013.0,N
1505265155.9,286047015.6,P
1505265175.7,286046999.0,N
1505265195.5,286046998.8,N
1505265215.3,286046999.6,N
1505265235.2,286046996.8,N
1505265255.0,286046997.0,N
1505265255.9,286046997.0,N
1505265275.7,286046998.6,N
1505265295.6,286046996.7,N
1505265315.4,286047000.8,N
1505265335.2,286047000.5,N
1505265355.1,286047000.6,N
1505265356.0,286047000.6,N
1505265375.8,286046996.9,N
1505265395.6,286046998.4,N
1505265415.5,286047001.1,N
1505265435.3,286047001.9,N
1505265455.1,286047004.9,N
1505265475.9,286047003.4,N
1505265495.7,286047001.9,N
1505265515.5,286047002.0,N
1505265535.3,286046999.7,N
1505265555.2,286047003.2,N
1505265575.0,286047005.4,N
1505265575.9,286047005.4,N
1505265595.7,286047005.7,N
1505265615.6,286046999.2,N
1505265635.4,286046994.1,N
1505265655.2,286046987.5,N
1505265675.1,286046983.5,P
1505265676.0,286046983.5,N
1505265695.8,286046979.8,N
1505265715.6,286046981.9,N
1505265735.5,286046979.1,N
1505265755.3,286046980.9,N
1505265775.1,286046983.4,N
1505265795.9,286046981.2,N
1505265815.7,286046983.1,N
1505265835.5,286046977.7,P
1505265855.4,286046993.0,N
1505265875.2,286046992.8,N
1505265895.0,286046993.8,N
1505265895.9,286046993.8,N
1505265915.8,286046996.3,N
1505265935.6,286046996.2,N
1505265955.4,286046999.8,N
1505265975.3,286046995.4,N
1505265995.1,286046994.2,N
1505266015.8,286046992.3,N
1505266035.7,286046990.3,N
1505266055.5,286046989.5,N
1505266075.3,286046988.4,N
1505266095.2,286046986.8,N
1505266115.9,286046986.3,N
1505266135.7,286046986.7,N
1505266155.6,286046986.0,N
1505266175.4,286046985.0,N
1505266195.2,286046982.6,P
1505266215.1,286046990.4,N
1505266216.0,286046990.4,N
1505266235.8,286046992.6,N
1505266255.6,286046991.7,N
1505266275.5,286046989.1,P
1505266295.3,286047001.2,P
1505266315.1,286046998.2,N
1505266335.9,286047004.5,N
1505266355.7,286047007.8,N
1505266375.5,286047005.4,N
1505266395.4,286047005.9,N
1505266415.2,286047003.5,N
1505266435.0,286046998.4,N
1505266435.9,286046998.4,N
1505266455.8,286046996.5,N
1505266475.6,286046999.9,N
1505266495.4,286047003.5,N
1505266515.2,286047000.7,N
1505266535.1,286046998.1,N
1505266536.0,286046998.1,N
1505266555.8,286046993.8,N
1505266575.6,286046998.8,N
1505266595.5,286047001.6,N
1505266615.3,286047001.6,N
1505266635.1,286047000.0,N
1505266655.9,286047004.3,N
1505266675.7,286047004.6,N
1505266695.5,286047009.1,N
1505266715.4,286047013.8,N
1505266735.2,286047015.6,N
1505266755.0,286047014.1,N
1505266755.9,286047014.1,N
1505266775.8,286047018.3,N
1505266795.6,286047022.4,P
1505266815.4,286047017.6,N
1505266835.3,286047018.1,N
1505266855.1,286047017.4,N
1505266856.0,286047017.4,N
1505266875.8,286047022.0,P
1505266895.7,286047006.5,N
1505266915.5,286047006.7,N
1505266935.3,286047006.5,N
1505266955.2,286047008.6,N
1505266975.9,286047006.7,N
1505266995.7,286047011.9,N
1505267015.6,286047013.5,N
1505267035.4,286047014.8,N
1505267055.2,286047016.9,P
1505267075.1,286047003.2,N
1505267076.0,286047003.2,N
1505267095.8,286047004.8,N
1505267115.6,286047004.9,N
1505267135.5,286047004.8,N
1505267155.3,286047006.4,N
1505267175.1,286047005.5,N
1505267195.9,286047002.9,N
1505267215.7,286047003.4,N
1505267235.5,286047005.6,N
1505267255.3,286047005.8,N
1505267275.2,286047003.4,N
1505267295.0,286047006.3,N
1505267295.9,286047006.3,N
1505267315.7,286047007.4,N
1505267335.6,286047008.7,N
1505267355.4,286047008.6,N
1505267375.2,286047010.0,P
1505267395.1,286047005.5,N
1505267396.0,286047005.5,N
1505267415.8,286047005.8,P
1505267435.7,286047000.3,N
1505267455.5,286046996.6,N
1505267475.3,286046997.7,N
1505267495.2,286046996.4,N
1505267515.9,286046992.1,N
1505267535.7,286046987.5,N
1505267555.5,286046982.4,N
1505267575.4,286046980.8,N
1505267595.2,286046977.6,N
1505267615.0,286046977.5,N
1505267615.9,286046977.5,N
1505267635.8,286046978.6,N
1505267655.6,286046975.8,N
1505267675.4,286046977.2,N
1505267695.3,286046974.3,N
1505267715.1,286046972.8,N
1505267716.0,286046972.8,N
1505267735.8,286046969.1,N
1505267755.7,286046967.5,N
1505267775.5,286046964.2,P
1505267795.3,286046978.6,N
1505267815.2,286046977.7,N
1505267835.9,286046977.6,P
1505267855.7,286047003.0,P
1505267875.6,286047003.8,N
1505267895.4,286047002.7,N
1505267915.2,286046998.2,N
1505267935.1,286047000.1,N
1505267936.0,286047000.1,N
1505267955.8,286047004.2,N
1505267975.6,286047008.4,N
1505267995.5,286047006.8,N
